Location: Pl�tzky
(52.0521°N, 11.8020°E)
Time: 01:03:06
(UTC+00:00)

N. Korean satellite - Pass Details

Date: 29 January 2021
Orbit: 451 x 502 km, 97.2° (Epoch: 06 March)

Event Time Altitude Azimuth Distance (km) Brightness Sun altitude
Rises 04:28:22 0° 17° (NNE) 2,508 10.4 -22.8°
Reaches altitude 10° 04:30:29 10° 24° (NNE) 1,620 9.5 -22.5°
Maximum altitude 04:33:51 46° 99° (E) 625 7.5 -22.0°
Drops below altitude 10° 04:37:08 10° 174° (S) 1,588 9.2 -21.4°
Sets 04:39:12 0° 181° (S) 2,453 10.2 -21.1°
